Year,Month,Day,Hour,Minute,Value (Times are PST for temperature in C)
2014,06,22,07,25,14.40
2014,06,22,07,26,14.50
2014,06,22,07,27,14.60
2014,06,22,07,28,14.70
2014,06,22,07,29,14.80
2014,06,22,07,30,14.80
2014,06,22,07,31,14.90
2014,06,22,07,32,15.00
2014,06,22,07,33,15.10
2014,06,22,07,34,15.10
2014,06,22,07,35,15.20
2014,06,22,07,36,15.30
2014,06,22,07,37,15.30
2014,06,22,07,38,15.40
2014,06,22,07,39,15.40
2014,06,22,07,40,15.40
2014,06,22,07,41,15.40
2014,06,22,07,42,15.40
2014,06,22,07,43,15.40
2014,06,22,07,44,15.40
2014,06,22,07,45,15.40
2014,06,22,07,46,15.40
2014,06,22,07,47,15.40
2014,06,22,07,48,15.50
2014,06,22,07,49,15.60
2014,06,22,07,50,15.60
2014,06,22,07,51,15.70
2014,06,22,07,52,15.80
2014,06,22,07,53,15.80
2014,06,22,07,54,15.70
2014,06,22,07,55,15.60
2014,06,22,07,56,15.50
2014,06,22,07,57,15.40
2014,06,22,07,58,15.30
2014,06,22,07,59,15.20
2014,06,22,08,00,15.10
2014,06,22,08,01,15.00
2014,06,22,08,02,14.90
2014,06,22,08,03,14.80
2014,06,22,08,04,14.70
2014,06,22,08,05,14.70
2014,06,22,08,06,14.60
2014,06,22,08,07,14.60
2014,06,22,08,08,14.60
2014,06,22,08,09,14.50
2014,06,22,08,10,14.50
2014,06,22,08,11,14.50
2014,06,22,08,12,14.60
2014,06,22,08,13,14.60
2014,06,22,08,14,14.50
2014,06,22,08,15,14.50
2014,06,22,08,16,14.50
2014,06,22,08,17,14.50
2014,06,22,08,18,14.50
2014,06,22,08,19,14.50
2014,06,22,08,20,14.50
2014,06,22,08,21,14.50
2014,06,22,08,22,14.50
2014,06,22,08,23,14.50
2014,06,22,08,24,14.50
2014,06,22,08,25,14.50
2014,06,22,08,26,14.50
2014,06,22,08,27,14.40
2014,06,22,08,28,14.40
2014,06,22,08,29,14.40
2014,06,22,08,30,14.30
2014,06,22,08,31,14.30
2014,06,22,08,32,14.20
2014,06,22,08,33,14.20
2014,06,22,08,34,14.10
2014,06,22,08,35,14.10
2014,06,22,08,36,14.00
2014,06,22,08,37,13.90
2014,06,22,08,38,13.90
2014,06,22,08,39,13.80
2014,06,22,08,40,13.80
2014,06,22,08,41,13.80
2014,06,22,08,42,13.80
2014,06,22,08,43,13.80
2014,06,22,08,44,13.80
2014,06,22,08,45,13.80
2014,06,22,08,46,13.80
2014,06,22,08,47,13.80
2014,06,22,08,48,13.90
2014,06,22,08,49,13.90
2014,06,22,08,50,13.90
2014,06,22,08,51,13.90
2014,06,22,08,52,13.90
2014,06,22,08,53,14.00
2014,06,22,08,54,14.00
2014,06,22,08,55,14.00
2014,06,22,08,56,14.00
2014,06,22,08,57,14.00
2014,06,22,08,58,14.00
2014,06,22,08,59,14.00
2014,06,22,09,00,14.00
2014,06,22,09,01,14.00
2014,06,22,09,02,14.00
2014,06,22,09,03,14.00
2014,06,22,09,04,14.00
2014,06,22,09,05,14.00
2014,06,22,09,06,14.00
2014,06,22,09,07,14.10
2014,06,22,09,08,14.10
2014,06,22,09,09,14.10
2014,06,22,09,10,14.10
2014,06,22,09,11,14.10
2014,06,22,09,12,14.20
2014,06,22,09,13,14.20
2014,06,22,09,14,14.30
2014,06,22,09,15,14.40
2014,06,22,09,16,14.50
2014,06,22,09,17,14.60
2014,06,22,09,18,14.70
2014,06,22,09,19,14.80
2014,06,22,09,20,14.80
2014,06,22,09,21,14.90
2014,06,22,09,22,15.00
2014,06,22,09,23,15.10
2014,06,22,09,24,15.10
2014,06,22,09,25,15.20
2014,06,22,09,26,15.20
2014,06,22,09,27,15.20
2014,06,22,09,28,15.20
2014,06,22,09,29,15.20
2014,06,22,09,30,15.30
2014,06,22,09,31,15.30
2014,06,22,09,32,15.30
2014,06,22,09,33,15.30
2014,06,22,09,34,15.30
2014,06,22,09,35,15.40
2014,06,22,09,36,15.40
2014,06,22,09,37,15.40
2014,06,22,09,38,15.50
2014,06,22,09,39,15.50
2014,06,22,09,40,15.50
2014,06,22,09,41,15.50
2014,06,22,09,42,15.50
2014,06,22,09,43,15.50
2014,06,22,09,44,15.50
2014,06,22,09,45,15.50
2014,06,22,09,46,15.50
2014,06,22,09,47,15.60
2014,06,22,09,48,15.60
2014,06,22,09,49,15.60
2014,06,22,09,50,15.60
2014,06,22,09,51,15.70
2014,06,22,09,52,15.70
2014,06,22,09,53,15.70
2014,06,22,09,54,15.70
2014,06,22,09,55,15.70
2014,06,22,09,56,15.80
2014,06,22,09,57,15.80
2014,06,22,09,58,15.80
2014,06,22,09,59,15.80
2014,06,22,10,00,15.80
2014,06,22,10,01,15.80
2014,06,22,10,02,15.70
2014,06,22,10,03,15.70
2014,06,22,10,04,15.70
2014,06,22,10,05,15.70
2014,06,22,10,06,15.70
2014,06,22,10,07,15.70
2014,06,22,10,08,15.70
2014,06,22,10,09,15.60
2014,06,22,10,10,15.60
2014,06,22,10,11,15.60
2014,06,22,10,12,15.60
2014,06,22,10,13,15.50
2014,06,22,10,14,15.50
2014,06,22,10,15,15.40
2014,06,22,10,16,15.30
2014,06,22,10,17,15.20
2014,06,22,10,18,15.10
2014,06,22,10,19,15.00
2014,06,22,10,20,14.90
2014,06,22,10,21,14.90
2014,06,22,10,22,14.80
2014,06,22,10,23,14.80
2014,06,22,10,24,14.80
2014,06,22,10,25,14.70
2014,06,22,10,26,14.60
2014,06,22,10,27,14.60
2014,06,22,10,28,14.50
2014,06,22,10,29,14.40
2014,06,22,10,30,14.30
2014,06,22,10,31,14.10
2014,06,22,10,32,14.00
2014,06,22,10,33,13.80
2014,06,22,10,34,13.80
2014,06,22,10,35,13.70
2014,06,22,10,36,13.70
2014,06,22,10,37,13.70
2014,06,22,10,38,13.70
2014,06,22,10,39,13.70
2014,06,22,10,40,13.70
2014,06,22,10,41,13.70
2014,06,22,10,42,13.60
2014,06,22,10,43,13.60
2014,06,22,10,44,13.70
2014,06,22,10,45,13.70
2014,06,22,10,46,13.80
2014,06,22,10,47,13.80
2014,06,22,10,48,13.80
2014,06,22,10,49,13.80
2014,06,22,10,50,13.90
2014,06,22,10,51,13.90
2014,06,22,10,52,13.90
2014,06,22,10,53,13.90
2014,06,22,10,54,13.90
2014,06,22,10,55,13.90
2014,06,22,10,56,13.80
2014,06,22,10,57,13.80
2014,06,22,10,58,13.90
2014,06,22,10,59,13.90
2014,06,22,11,00,14.00
2014,06,22,11,01,14.00
2014,06,22,11,02,14.10
2014,06,22,11,03,14.10
2014,06,22,11,04,14.20
2014,06,22,11,05,14.20
2014,06,22,11,06,14.30
2014,06,22,11,07,14.30
2014,06,22,11,08,14.30
2014,06,22,11,09,14.40
2014,06,22,11,10,14.40
2014,06,22,11,11,14.40
2014,06,22,11,12,14.40
2014,06,22,11,13,14.40
2014,06,22,11,14,14.40
2014,06,22,11,15,14.40
2014,06,22,11,16,14.40
2014,06,22,11,17,14.40
2014,06,22,11,18,14.40
2014,06,22,11,19,14.40
2014,06,22,11,20,14.40
2014,06,22,11,21,14.40
2014,06,22,11,22,14.40
2014,06,22,11,23,14.40
2014,06,22,11,24,14.40
2014,06,22,11,25,14.40
2014,06,22,11,26,14.50
2014,06,22,11,27,14.50
2014,06,22,11,28,14.60
2014,06,22,11,29,14.60
2014,06,22,11,30,14.70
2014,06,22,11,31,14.80
2014,06,22,11,32,14.80
2014,06,22,11,33,14.80
2014,06,22,11,34,14.90
2014,06,22,11,35,14.90
2014,06,22,11,36,15.00
2014,06,22,11,37,15.00
2014,06,22,11,38,15.10
2014,06,22,11,39,15.20
2014,06,22,11,40,15.20
2014,06,22,11,41,15.20
2014,06,22,11,42,15.20
2014,06,22,11,43,15.30
2014,06,22,11,44,15.40
2014,06,22,11,45,15.40
2014,06,22,11,46,15.50
2014,06,22,11,47,15.60
2014,06,22,11,48,15.60
2014,06,22,11,49,15.70
2014,06,22,11,50,15.70
2014,06,22,11,51,15.70
2014,06,22,11,52,15.80
2014,06,22,11,53,15.80
2014,06,22,11,54,15.90
2014,06,22,11,55,15.90
2014,06,22,11,56,16.00
2014,06,22,11,57,16.00
2014,06,22,11,58,16.00
2014,06,22,11,59,16.10
2014,06,22,12,00,16.00
2014,06,22,12,01,16.00
2014,06,22,12,02,16.10
2014,06,22,12,03,16.10
2014,06,22,12,04,16.20
2014,06,22,12,05,16.30
2014,06,22,12,06,16.40
2014,06,22,12,07,16.50
2014,06,22,12,08,16.50
2014,06,22,12,09,16.50
2014,06,22,12,10,16.40
2014,06,22,12,11,16.50
2014,06,22,12,12,16.50
2014,06,22,12,13,16.60
2014,06,22,12,14,16.70
2014,06,22,12,15,16.80
2014,06,22,12,16,16.80
2014,06,22,12,17,16.80
2014,06,22,12,18,16.80
2014,06,22,12,19,16.80
2014,06,22,12,20,16.80
2014,06,22,12,21,16.70
2014,06,22,12,22,16.70
2014,06,22,12,23,16.70
2014,06,22,12,24,16.70
2014,06,22,12,25,16.70
2014,06,22,12,26,16.70
2014,06,22,12,27,16.70
2014,06,22,12,28,16.60
2014,06,22,12,29,16.60
2014,06,22,12,30,16.50
2014,06,22,12,31,16.60
2014,06,22,12,32,16.70
2014,06,22,12,33,16.80
2014,06,22,12,34,16.80
2014,06,22,12,35,16.80
2014,06,22,12,36,16.90
2014,06,22,12,37,16.90
2014,06,22,12,38,16.90
2014,06,22,12,39,16.90
2014,06,22,12,40,16.80
2014,06,22,12,41,16.80
2014,06,22,12,42,16.70
2014,06,22,12,43,16.70
2014,06,22,12,44,16.60
2014,06,22,12,45,16.60
2014,06,22,12,46,16.60
2014,06,22,12,47,16.60
2014,06,22,12,48,16.60
2014,06,22,12,49,16.60
2014,06,22,12,50,16.60
2014,06,22,12,51,16.60
2014,06,22,12,52,16.60
2014,06,22,12,53,16.70
2014,06,22,12,54,16.80
2014,06,22,12,55,16.90
2014,06,22,12,56,17.00
2014,06,22,12,57,17.10
2014,06,22,12,58,17.10
2014,06,22,12,59,17.10
2014,06,22,13,00,17.10
2014,06,22,13,01,17.10
2014,06,22,13,02,17.10
2014,06,22,13,03,17.10
2014,06,22,13,04,17.10
2014,06,22,13,05,17.10
2014,06,22,13,06,17.10
2014,06,22,13,07,17.10
2014,06,22,13,08,17.00
2014,06,22,13,09,17.00
2014,06,22,13,10,17.00
2014,06,22,13,11,17.10
2014,06,22,13,12,17.10
2014,06,22,13,13,17.20
2014,06,22,13,14,17.30
2014,06,22,13,15,17.30
2014,06,22,13,16,17.40
2014,06,22,13,17,17.40
2014,06,22,13,18,17.50
2014,06,22,13,19,17.50
2014,06,22,13,20,17.60
2014,06,22,13,21,17.60
2014,06,22,13,22,17.70
2014,06,22,13,23,17.70
2014,06,22,13,24,17.70
2014,06,22,13,25,17.70
2014,06,22,13,26,17.60
2014,06,22,13,27,17.60
2014,06,22,13,28,17.50
2014,06,22,13,29,17.50
2014,06,22,13,30,17.50
2014,06,22,13,31,17.50
2014,06,22,13,32,17.50
2014,06,22,13,33,17.60
2014,06,22,13,34,17.60
2014,06,22,13,35,17.50
2014,06,22,13,36,17.50
2014,06,22,13,37,17.50
2014,06,22,13,38,17.50
2014,06,22,13,39,17.50
2014,06,22,13,40,17.50
2014,06,22,13,41,17.50
2014,06,22,13,42,17.40
2014,06,22,13,43,17.40
2014,06,22,13,44,17.40
2014,06,22,13,45,17.50
2014,06,22,13,46,17.60
2014,06,22,13,47,17.60
2014,06,22,13,48,17.60
2014,06,22,13,49,17.60
2014,06,22,13,50,17.60
2014,06,22,13,51,17.60
2014,06,22,13,52,17.60
2014,06,22,13,53,17.60
2014,06,22,13,54,17.50
2014,06,22,13,55,17.60
2014,06,22,13,56,17.60
2014,06,22,13,57,17.60
2014,06,22,13,58,17.70
2014,06,22,13,59,17.80
2014,06,22,14,00,18.00
2014,06,22,14,01,18.10
2014,06,22,14,02,18.20
2014,06,22,14,03,18.20
2014,06,22,14,04,18.10
2014,06,22,14,05,18.10
2014,06,22,14,06,18.20
2014,06,22,14,07,18.20
2014,06,22,14,08,18.30
2014,06,22,14,09,18.40
2014,06,22,14,10,18.40
2014,06,22,14,11,18.50
2014,06,22,14,12,18.60
2014,06,22,14,13,18.70
2014,06,22,14,14,18.70
2014,06,22,14,15,18.80
2014,06,22,14,16,18.90
2014,06,22,14,17,18.90
2014,06,22,14,18,18.90
2014,06,22,14,19,18.80
2014,06,22,14,20,18.70
2014,06,22,14,21,18.60
2014,06,22,14,22,18.50
2014,06,22,14,23,18.50
2014,06,22,14,24,18.40
2014,06,22,14,25,18.40
2014,06,22,14,26,18.40
2014,06,22,14,27,18.40
2014,06,22,14,28,18.40
2014,06,22,14,29,18.40
2014,06,22,14,30,18.50
2014,06,22,14,31,18.60
2014,06,22,14,32,18.60
2014,06,22,14,33,18.70
2014,06,22,14,34,18.70
2014,06,22,14,35,18.60
2014,06,22,14,36,18.50
2014,06,22,14,37,18.50
2014,06,22,14,38,18.30
2014,06,22,14,39,18.20
2014,06,22,14,40,18.20
2014,06,22,14,41,18.10
2014,06,22,14,42,18.20
2014,06,22,14,43,18.30
2014,06,22,14,44,18.40
2014,06,22,14,45,18.60
2014,06,22,14,46,18.80
2014,06,22,14,47,18.90
2014,06,22,14,48,19.00
2014,06,22,14,49,19.10
2014,06,22,14,50,19.20
2014,06,22,14,51,19.30
2014,06,22,14,52,19.40
2014,06,22,14,53,19.40
2014,06,22,14,54,19.40
2014,06,22,14,55,19.40
2014,06,22,14,56,19.40
2014,06,22,14,57,19.30
2014,06,22,14,58,19.30
2014,06,22,14,59,19.30
2014,06,22,15,00,19.30
2014,06,22,15,01,19.30
2014,06,22,15,02,19.30
2014,06,22,15,03,19.40
2014,06,22,15,04,19.40
2014,06,22,15,05,19.40
2014,06,22,15,06,19.40
2014,06,22,15,07,19.30
2014,06,22,15,08,19.30
2014,06,22,15,09,19.30
2014,06,22,15,10,19.30
2014,06,22,15,11,19.30
2014,06,22,15,12,19.40
2014,06,22,15,13,19.40
2014,06,22,15,14,19.50
2014,06,22,15,15,19.50
2014,06,22,15,16,19.60
2014,06,22,15,17,19.70
2014,06,22,15,18,19.80
2014,06,22,15,19,19.90
2014,06,22,15,20,19.90
2014,06,22,15,21,20.00
2014,06,22,15,22,20.00
2014,06,22,15,23,20.10
2014,06,22,15,24,20.20
2014,06,22,15,25,20.30
2014,06,22,15,26,20.40
2014,06,22,15,27,20.40
2014,06,22,15,28,20.40
2014,06,22,15,29,20.50
2014,06,22,15,30,20.40
2014,06,22,15,31,20.40
2014,06,22,15,32,20.30
2014,06,22,15,33,20.10
2014,06,22,15,34,20.10
2014,06,22,15,35,20.00
2014,06,22,15,36,20.10
2014,06,22,15,37,20.10
2014,06,22,15,38,20.00
2014,06,22,15,39,20.00
2014,06,22,15,40,20.00
2014,06,22,15,41,19.90
2014,06,22,15,42,19.90
2014,06,22,15,43,19.90
2014,06,22,15,44,20.00
2014,06,22,15,45,20.00
2014,06,22,15,46,20.00
2014,06,22,15,47,20.00
2014,06,22,15,48,20.00
2014,06,22,15,49,20.00
2014,06,22,15,50,20.00
2014,06,22,15,51,20.00
2014,06,22,15,52,20.00
2014,06,22,15,53,19.90
2014,06,22,15,54,19.90
2014,06,22,15,55,19.80
2014,06,22,15,56,19.80
2014,06,22,15,57,19.80
2014,06,22,15,58,19.80
2014,06,22,15,59,19.80
2014,06,22,16,00,19.70
2014,06,22,16,01,19.70
2014,06,22,16,02,19.70
2014,06,22,16,03,19.80
2014,06,22,16,04,19.80
2014,06,22,16,05,19.90
2014,06,22,16,06,20.00
2014,06,22,16,07,20.00
2014,06,22,16,08,20.00
2014,06,22,16,09,19.90
2014,06,22,16,10,19.90
2014,06,22,16,11,20.00
2014,06,22,16,12,20.00
2014,06,22,16,13,20.00
2014,06,22,16,14,20.00
2014,06,22,16,15,20.00
2014,06,22,16,16,20.00
2014,06,22,16,17,20.00
2014,06,22,16,18,20.00
2014,06,22,16,19,20.10
2014,06,22,16,20,20.10
2014,06,22,16,21,20.20
2014,06,22,16,22,20.30
2014,06,22,16,23,20.40
2014,06,22,16,24,20.50
2014,06,22,16,25,20.50
2014,06,22,16,26,20.60
2014,06,22,16,27,20.60
2014,06,22,16,28,20.60
2014,06,22,16,29,20.70
2014,06,22,16,30,20.70
2014,06,22,16,31,20.70
2014,06,22,16,32,20.70
2014,06,22,16,33,20.80
2014,06,22,16,34,20.80
2014,06,22,16,35,20.90
2014,06,22,16,36,20.90
2014,06,22,16,37,20.90
2014,06,22,16,38,20.90
2014,06,22,16,39,20.90
2014,06,22,16,40,20.80
2014,06,22,16,41,20.80
2014,06,22,16,42,20.80
2014,06,22,16,43,20.70
2014,06,22,16,44,20.70
2014,06,22,16,45,20.70
2014,06,22,16,46,20.70
2014,06,22,16,47,20.70
2014,06,22,16,48,20.70
2014,06,22,16,49,20.70
2014,06,22,16,50,20.80
2014,06,22,16,51,20.80
2014,06,22,16,52,20.90
2014,06,22,16,53,20.90
2014,06,22,16,54,20.90
2014,06,22,16,55,20.90
2014,06,22,16,56,20.80
2014,06,22,16,57,20.70
2014,06,22,16,58,20.50
2014,06,22,16,59,20.40
2014,06,22,17,00,20.30
2014,06,22,17,01,20.20
2014,06,22,17,02,20.20
2014,06,22,17,03,20.10
2014,06,22,17,04,20.00
2014,06,22,17,05,19.90
2014,06,22,17,06,19.80
2014,06,22,17,07,19.80
2014,06,22,17,08,19.70
2014,06,22,17,09,19.80
2014,06,22,17,10,19.80
2014,06,22,17,11,19.80
2014,06,22,17,12,19.90
2014,06,22,17,13,19.90
2014,06,22,17,14,19.80
2014,06,22,17,15,19.80
2014,06,22,17,16,19.70
2014,06,22,17,17,19.60
2014,06,22,17,18,19.60
2014,06,22,17,19,19.60
2014,06,22,17,20,19.60
2014,06,22,17,21,19.60
2014,06,22,17,22,19.60
2014,06,22,17,23,19.50
2014,06,22,17,24,19.50
2014,06,22,17,25,19.40
2014,06,22,17,26,19.30
2014,06,22,17,27,19.30
2014,06,22,17,28,19.30
2014,06,22,17,29,19.30
2014,06,22,17,30,19.20
2014,06,22,17,31,19.30
2014,06,22,17,32,19.30
2014,06,22,17,33,19.30
2014,06,22,17,34,19.30
2014,06,22,17,35,19.30
2014,06,22,17,36,19.30
2014,06,22,17,37,19.30
2014,06,22,17,38,19.20
2014,06,22,17,39,19.20
2014,06,22,17,40,19.10
2014,06,22,17,41,19.10
2014,06,22,17,42,19.00
2014,06,22,17,43,19.00
2014,06,22,17,44,18.90
2014,06,22,17,45,18.90
2014,06,22,17,46,18.90
2014,06,22,17,47,18.80
2014,06,22,17,48,18.80
2014,06,22,17,49,18.80
2014,06,22,17,50,18.70
2014,06,22,17,51,18.70
2014,06,22,17,52,18.70
2014,06,22,17,53,18.70
2014,06,22,17,54,18.60
2014,06,22,17,55,18.60
2014,06,22,17,56,18.60
2014,06,22,17,57,18.50
2014,06,22,17,58,18.40
2014,06,22,17,59,18.40
2014,06,22,18,00,18.30
2014,06,22,18,01,18.30
2014,06,22,18,02,18.20
2014,06,22,18,03,18.10
2014,06,22,18,04,18.10
2014,06,22,18,05,18.00
2014,06,22,18,06,18.00
2014,06,22,18,07,17.90
2014,06,22,18,08,17.90
2014,06,22,18,09,17.80
2014,06,22,18,10,17.70
2014,06,22,18,11,17.70
2014,06,22,18,12,17.60
2014,06,22,18,13,17.60
2014,06,22,18,14,17.60
2014,06,22,18,15,17.60
2014,06,22,18,16,17.60
2014,06,22,18,17,17.50
2014,06,22,18,18,17.50
2014,06,22,18,19,17.50
2014,06,22,18,20,17.50
2014,06,22,18,21,17.50
2014,06,22,18,22,17.50
2014,06,22,18,23,17.50
2014,06,22,18,24,17.50
2014,06,22,18,25,17.60
2014,06,22,18,26,17.60
2014,06,22,18,27,17.60
2014,06,22,18,28,17.70
2014,06,22,18,29,17.70
2014,06,22,18,30,17.80
2014,06,22,18,31,17.90
2014,06,22,18,32,17.90
2014,06,22,18,33,18.00
2014,06,22,18,34,18.10
2014,06,22,18,35,18.10
2014,06,22,18,36,18.20
2014,06,22,18,37,18.20
2014,06,22,18,38,18.30
2014,06,22,18,39,18.30
2014,06,22,18,40,18.40
2014,06,22,18,41,18.40
2014,06,22,18,42,18.50
2014,06,22,18,43,18.50
2014,06,22,18,44,18.50
2014,06,22,18,45,18.60
2014,06,22,18,46,18.60
2014,06,22,18,47,18.60
2014,06,22,18,48,18.60
2014,06,22,18,49,18.60
2014,06,22,18,50,18.60
2014,06,22,18,51,18.70
2014,06,22,18,52,18.80
2014,06,22,18,53,18.80
2014,06,22,18,54,19.00
2014,06,22,18,55,19.10
2014,06,22,18,56,19.20
2014,06,22,18,57,19.30
2014,06,22,18,58,19.40
2014,06,22,18,59,19.50
2014,06,22,19,00,19.60
2014,06,22,19,01,19.70
2014,06,22,19,02,19.80
2014,06,22,19,03,19.90
2014,06,22,19,04,19.90
2014,06,22,19,05,20.00
2014,06,22,19,06,20.00
2014,06,22,19,07,20.10
2014,06,22,19,08,20.10
2014,06,22,19,09,20.10
2014,06,22,19,10,20.20
2014,06,22,19,11,20.20
2014,06,22,19,12,20.20
2014,06,22,19,13,20.20
2014,06,22,19,14,20.20
2014,06,22,19,15,20.20
2014,06,22,19,16,20.10
2014,06,22,19,17,20.10
2014,06,22,19,18,20.00
2014,06,22,19,19,20.00
2014,06,22,19,20,19.90
2014,06,22,19,21,19.90
2014,06,22,19,22,19.90
2014,06,22,19,23,19.90
2014,06,22,19,24,19.90
2014,06,22,19,25,19.90
2014,06,22,19,26,19.80
2014,06,22,19,27,19.80
2014,06,22,19,28,19.80
2014,06,22,19,29,19.80
2014,06,22,19,30,19.80
2014,06,22,19,31,19.80
2014,06,22,19,32,19.80
2014,06,22,19,33,19.70
2014,06,22,19,34,19.70
2014,06,22,19,35,19.60
2014,06,22,19,36,19.60
2014,06,22,19,37,19.50
2014,06,22,19,38,19.50
2014,06,22,19,39,19.50
2014,06,22,19,40,19.50
2014,06,22,19,41,19.50
2014,06,22,19,42,19.50
2014,06,22,19,43,19.40
2014,06,22,19,44,19.40
2014,06,22,19,45,19.40
2014,06,22,19,46,19.40
2014,06,22,19,47,19.40
2014,06,22,19,48,19.40
2014,06,22,19,49,19.40
2014,06,22,19,50,19.50
2014,06,22,19,51,19.50
2014,06,22,19,52,19.50
2014,06,22,19,53,19.50
2014,06,22,19,54,19.50
2014,06,22,19,55,19.50
2014,06,22,19,56,19.50
2014,06,22,19,57,19.50
2014,06,22,19,58,19.50
2014,06,22,19,59,19.50
2014,06,22,20,00,19.50
